Regional Weather Roundup
Issued by NWS Northern Indiana

Home | Current Version | Previous Version | Text Only | Print | Product List | Glossary Off
Versions: 1 2 3 4 5 6 7 8 9 10 11 12 13 14 15 16 17 18 19 20 21 22 23 24 25 26 27 28 29 30 31 32 33 34 35 36 37 38 39 40 41 42 43 44 45 46 47 48 49 50

000
ASUS43 KIWX 290000
RWRIWX

KIWX WEATHER ROUNDUP
NATIONAL WEATHER SERVICE NORTHERN INDIANA
800 PM EDT MON JUL 28 2014

NOTE: "FAIR" INDICATES FEW OR NO CLOUDS BELOW 12,000 FEET WITH NO
SIGNIFICANT WEATHER AND/OR OBSTRUCTIONS TO VISIBILITY.

* THESE STATIONS ARE NOT UNDER NWS QUALITY CONTROL. THEY ALSO MAY NOT
  REPORT WEATHER SUCH AS PRECIPITATION OR FOG.

INZ001>027-290100-
NORTHERN INDIANA

CITY           SKY/WX    TMP DP  RH WIND       PRES   REMARKS
GARY*          MOSUNNY   64  50  59 NW9       30.09F
VALPARAISO     SUNNY     64  48  56 N13G20    30.07S
6HR MIN TEMP:  60; 6HR MAX TEMP:  64;

KNOX*          SUNNY     62  45  53 N9G17     30.05S
6HR MIN TEMP:  44; 6HR MAX TEMP:  86;

SOUTH BEND     SUNNY     60  48  64 N13       30.05S
6HR MIN TEMP:  60; 6HR MAX TEMP:  64;

GOSHEN         SUNNY     60  50  69 N12       30.03S
6HR MIN TEMP:  60; 6HR MAX TEMP:  67;

MONTICELLO*    SUNNY     63  49  60 N13G25    30.06S
6HR MIN TEMP:  63; 6HR MAX TEMP:  68;

WARSAW*        SUNNY     59  46  63 NW10      30.04R
ANGOLA*        SUNNY     63  52  67 NW7       30.00S
FORT WAYNE     PTCLDY    62  50  64 NW14      30.01R
6HR MIN TEMP:  62; 6HR MAX TEMP:  72;

PERU/GRISSOM   SUNNY     63  50  61 NW15      30.03S
6HR MIN TEMP:  63; 6HR MAX TEMP:  67;


$$
INZ028>050-290100-
CENTRAL INDIANA

CITY           SKY/WX    TMP DP  RH WIND       PRES   REMARKS
LAFAYETTE      SUNNY     64  46  52 N10       30.07S
6HR MIN TEMP:  64; 6HR MAX TEMP:  70;

KOKOMO*        SUNNY     63  46  55 NW15      30.04R
6HR MIN TEMP:  63; 6HR MAX TEMP:  68;

MUNCIE*        PTCLDY    63  50  62 NW14      30.02R
6HR MIN TEMP:  63; 6HR MAX TEMP:  72;

INDIANAPOLIS   MOSUNNY   65  47  52 NW18G24   30.04R
6HR MIN TEMP:  65; 6HR MAX TEMP:  73;


$$
MIZ043>046-050>051-056>058-064>065-071>073-077>080-290100-
SOUTHWEST LOWER MICHIGAN

CITY           SKY/WX    TMP DP  RH WIND       PRES   REMARKS
BATTLE CREEK   CLOUDY    64  50  60 N15       30.01R
6HR MIN TEMP:  64; 6HR MAX TEMP:  70;

BENTON HARBOR  SUNNY     57  49  74 VRB3      30.05F
6HR MIN TEMP:  57; 6HR MAX TEMP:  60;

COLDWATER*     CLOUDY    65  54  69 NW10      29.99S
6HR MIN TEMP:  64; 6HR MAX TEMP:  71;

HILLSDALE*     MOCLDY    65  55  69 NW7       29.99R
HOLLAND        SUNNY     60  47  61 NW8       30.04F
6HR MIN TEMP:  60; 6HR MAX TEMP:  65;

GRAND RAPIDS   MOSUNNY   66  48  52 N7        30.02S
6HR MIN TEMP:  65; 6HR MAX TEMP:  71;

KALAMAZOO      SUNNY     63  50  62 NW14      30.02S
6HR MIN TEMP:  63; 6HR MAX TEMP:  69;

STURGIS*       SUNNY     61  54  77 NW8       30.01S
THREE RIVERS*  FAIR      62  53  72 NW9       30.02S
6HR MIN TEMP:  62; 6HR MAX TEMP:  71;


$$
OHZ001>008-015>018-024>025-290100-
NORTHWEST OHIO

CITY           SKY/WX    TMP DP  RH WIND       PRES   REMARKS
DEFIANCE       CLEAR     66  53  63 NW9G16    29.97R
6HR MIN TEMP:  66; 6HR MAX TEMP:  75;

FINDLAY        CLOUDY    70  53  54 N9        29.94R
6HR MIN TEMP:  70; 6HR MAX TEMP:  76;

TOLEDO EXPRESS CLOUDY    67  52  58 N9        29.96R
6HR MIN TEMP:  67; 6HR MAX TEMP:  75;

TOLEDO METCALF CLOUDY    68  50  52 N12G17    29.96R
6HR MIN TEMP:  68; 6HR MAX TEMP:  74;

LIMA           MOCLDY    68  55  63 NW14G24   29.96R
6HR MIN TEMP:  68; 6HR MAX TEMP:  73;


$$
&&



USA.gov is the U.S. government's official web portal to all federal, state and local government web resources and services.